Presure
203 224 214 222 234 208 227 269 389 239 248 218 232 230 230 225 226 213 230 215 219 226 238 220 200 200 193 192 191 196 193 185
197 208 218 223 250 224 269 361 279 255 242 234 226 222 227 219 220 224 219 217 225 211 201 246 224 210 204 220 192 196 210 199
149 206 224 233 242 257 364 357 243 235 229 232 219 218 206 216 222 216 222 218 217 231 245 236 217 215 210 209 211 213 207 200
193 226 225 253 252 385 384 276 244 242 217 223 212 205 207 214 186 217 215 262 247 238 225 214 203 213 207 225 203 199 197 196
205 220 242 238 361 383 284 254 236 232 226 200 208 200 210 201 218 241 233 306 242 217 217 219 230 238 214 203 186 184 192 192
214 238 222 316 365 301 256 239 222 225 206 212 203 211 190 212 221 239 283 252 238 207 233 226 225 224 224 212 209 211 205 201
242 228 267 365 302 259 239 228 221 200 211 204 202 193 205 221 225 263 249 225 212 220 222 234 227 216 219 213 202 202 197 195
223 230 292 351 272 239 213 195 206 208 196 205 195 194 219 216 231 254 235 222 210 214 213 216 241 218 205 207 209 201 196 191
232 273 354 283 255 225 226 211 199 196 204 201 196 197 197 215 216 249 228 224 210 206 222 208 219 203 205 209 195 191 195 195
236 273 334 263 233 192 197 211 205 200 198 200 193 201 208 204 224 253 225 221 215 205 195 201 201 194 199 201 198 205 202 202
255 304 287 218 219 229 217 203 194 202 198 191 200 210 179 207 172 210 203 206 207 217 205 199 193 196 199 195 194 194 189 183
260 303 260 235 223 200 208 203 194 201 190 182 204 183 196 203 208 215 196 205 200 196 195 197 196 187 184 182 181 181 181 180
290 289 257 207 221 220 201 201 182 199 183 186 201 172 182 201 195 203 181 197 202 195 192 190 183 181 190 190 185 182 182 183
281 285 249 224 223 216 202 195 195 196 192 199 196 198 175 184 181 204 198 215 204 200 186 187 185 183 184 184 182 181 181 180
271 252 213 225 219 214 200 196 193 180 192 195 185 194 188 181 182 191 197 194 192 200 205 203 201 198 194 191 187 190 197 195
261 232 225 222 215 206 196 194 190 194 174 195 187 191 194 174 188 182 192 178 187 192 191 196 198 201 203 203 200 199 202 186
251 260 225 220 214 199 196 195 190 197 181 192 197 183 190 192 179 190 185 189 169 170 183 184 186 191 189 182 184 183 181 181
235 247 213 217 207 203 200 197 193 183 190 184 202 186 177 188 183 188 183 191 184 175 180 181 181 180 182 181 181 183 183 181
224 231 215 214 195 209 192 198 192 192 182 181 180 198 193 182 182 181 176 191 180 192 188 183 180 186 184 182 176 179 171 183
Wind_Speed
68 71 53 54 61 57 54 60 31 39 31 39 30 33 39 42 44 47 45 53 50 46 52 64 61 70 69 69 66 62 59 51
60 51 50 57 70 60 62 37 39 34 29 31 32 33 37 41 44 45 48 43 40 44 48 51 63 65 71 70 70 61 64 64
49 53 65 71 61 63 42 36 38 38 33 32 33 36 35 37 37 39 37 38 39 40 45 50 57 60 64 65 67 65 58 57
49 73 68 66 61 35 34 38 39 31 36 34 36 35 38 37 37 33 33 31 35 41 42 48 48 57 57 62 62 56 52 55
65 60 62 56 34 32 40 38 36 33 35 39 36 37 37 33 33 29 30 25 35 38 41 44 47 54 60 58 48 46 53 56
55 60 49 45 29 46 40 39 36 37 42 38 38 38 28 35 26 23 24 27 29 34 40 45 41 41 48 52 53 51 53 53
65 50 47 29 46 40 42 41 40 44 41 39 38 33 36 28 22 22 26 28 30 33 33 43 42 37 43 49 50 51 50 49
45 47 42 33 43 45 48 40 41 44 44 39 38 32 28 25 19 23 26 29 30 28 31 31 40 40 38 43 49 44 45 48
45 39 27 47 44 50 42 46 46 46 42 39 38 32 34 25 20 24 27 30 29 28 26 27 33 32 36 42 41 45 48 52
42 36 32 47 51 39 43 47 47 47 41 40 35 36 31 29 18 25 28 30 26 29 32 27 28 32 35 40 39 48 48 49
41 32 42 44 55 46 49 50 48 47 42 36 36 34 34 28 28 25 26 27 24 28 29 29 29 29 31 31 33 32 33 36
40 32 43 49 53 46 53 50 49 47 38 31 37 30 39 31 29 29 29 29 30 30 29 28 29 32 33 36 35 36 38 40
37 36 45 49 54 53 52 50 36 49 38 35 40 36 36 33 30 31 27 30 35 33 33 35 39 38 37 39 41 44 42 43
36 41 51 55 55 56 53 52 51 51 45 43 45 41 38 34 32 32 31 32 34 38 33 34 34 34 36 38 39 40 41 43
37 47 53 55 56 59 53 54 54 45 49 44 44 47 45 37 38 36 34 36 35 36 39 43 46 48 47 48 49 52 53 52
42 55 57 58 60 61 56 56 54 58 39 47 47 49 51 39 42 40 40 37 37 38 39 41 43 42 43 45 47 47 43 44
45 49 58 60 61 58 59 61 57 60 48 49 53 46 51 52 44 47 46 45 38 37 44 43 44 46 47 46 47 47 46 47
53 53 60 62 58 64 63 63 62 53 55 49 56 53 49 54 50 50 46 50 50 45 47 49 50 50 52 51 52 52 54 54
56 57 62 61 57 66 59 65 62 62 56 56 54 61 63 55 53 50 46 55 50 54 55 55 54 58 59 58 52 59 57 61
Wind_Direction
272 275 284 277 288 265 269 286 252 240 213 234 215 222 224 226 227 227 229 235 236 233 230 229 236 240 248 253 258 263 263 263
271 279 287 284 288 268 285 268 226 218 210 215 219 224 227 224 226 230 232 239 238 237 237 227 232 234 239 240 252 255 253 257
261 282 282 287 279 280 261 224 222 218 214 214 218 223 230 231 234 235 239 240 241 231 219 220 227 231 236 241 244 250 253 255
270 277 284 282 276 244 234 202 213 203 217 211 222 227 233 235 244 241 241 239 228 222 223 224 232 229 234 227 241 248 250 254
274 281 281 271 274 239 196 201 203 202 203 231 221 232 236 243 241 244 237 218 215 221 222 223 217 213 227 234 246 251 250 252
275 277 267 284 251 198 199 199 219 198 218 216 226 230 236 242 239 242 219 214 215 223 215 218 226 225 220 229 236 239 242 246
275 268 281 258 201 197 199 198 202 227 214 221 229 235 244 238 236 236 212 216 216 212 209 218 221 217 221 221 231 235 241 250
265 266 284 218 203 201 221 235 209 211 228 221 233 239 234 231 234 221 213 218 219 217 214 214 221 212 217 220 225 233 234 241
267 283 246 205 200 204 193 210 224 223 219 224 233 240 244 227 238 213 217 222 217 220 209 211 211 211 214 217 222 232 236 236
265 279 222 203 204 227 233 199 205 218 222 226 236 241 239 234 221 210 213 222 221 221 226 218 220 222 223 220 229 231 239 244
271 262 215 213 212 191 192 206 220 215 221 231 231 230 240 229 241 216 216 207 218 217 220 220 224 232 233 236 239 238 243 249
267 241 209 199 205 223 200 205 220 217 226 230 226 248 246 232 222 212 233 216 215 209 215 222 228 228 233 238 241 244 248 251
250 225 206 217 202 193 208 209 231 220 229 230 228 242 247 237 242 227 257 229 220 224 229 228 226 232 236 237 235 236 243 250
234 218 203 205 202 195 204 212 218 223 224 224 227 227 247 242 254 231 231 214 220 226 241 239 242 245 248 251 252 254 258 260
222 207 215 203 203 202 209 212 220 229 227 223 232 233 239 243 252 240 231 233 237 224 221 226 230 233 238 241 247 250 252 253
212 204 205 204 205 210 216 216 223 226 237 227 231 233 231 246 242 252 237 256 244 237 236 236 237 235 235 237 242 246 247 256
208 211 205 206 207 216 218 220 225 225 235 229 230 238 237 235 249 239 247 244 259 266 255 253 252 245 245 254 252 255 260 263
208 209 209 210 216 215 217 221 226 236 234 234 234 238 242 240 247 246 250 241 250 262 258 255 255 256 255 257 258 256 257 259
212 210 210 211 223 215 225 223 229 230 237 239 240 236 238 245 247 252 256 247 256 248 251 256 261 258 259 259 261 260 268 262